Location: *
(48.6833°N, 10.8167°E)
Time: 04:03:31
(UTC+00:00)

Daily predictions for brighter satellites

Satellite Brightness Start Highest point End
(mag) Time Altitude Azimuth Time Altitude Azimuth Time Altitude Azimuth
Cosmos 1844 Rocket 4.4 00:17:23 27° N 00:17:23 27° N 00:20:28 10° NNE
Cosmos 2082 Rocket 4.1 00:14:35 10° NNW 00:16:42 23° NNW 00:16:42 23° NNW
SL-16 R/B 3.4 00:21:57 45° NNE 00:21:57 45° NNE 00:26:33 10° N
ADEOS II 4.3 00:39:12 10° NE 00:42:27 17° E 00:42:27 17° E
USA 267 4.0 00:43:12 10° ENE 00:49:22 46° N 00:50:26 42° NW
Resurs 1-4 Rocket 3.4 00:50:47 10° NNE 00:54:07 37° NE 00:54:07 37° NE
Cosmos 2278 Rocket 3.3 01:05:11 39° N 01:05:11 39° N 01:09:01 10° NNE
USA 238 DEB 4.1 01:17:23 53° ESE 01:17:23 53° ESE 01:23:47 10° NE
USA 238 4.1 01:17:28 53° ESE 01:17:28 53° ESE 01:23:53 10° NE
Lacrosse 5 3.3 01:20:30 32° N 01:20:40 32° N 01:25:14 10° ENE
Cosmos 1763 Rocket 4.3 01:26:46 48° NNE 01:26:46 48° NNE 01:30:36 10° NNE
MOS 1-B Rocket 4.1 01:19:35 10° NNE 01:25:30 70° N 01:25:30 70° N
Cosmos 1943 Rocket 3.5 01:26:29 29° ESE 01:26:43 29° ESE 01:31:25 10° NE
CZ-2D R/B 2.8 01:26:22 10° NNE 01:30:11 48° N 01:30:11 48° N
NPP 4.2 01:26:37 10° NNE 01:30:41 52° N 01:30:41 52° N
ARIANE 5 R/B 3.5 01:27:23 10° NNE 01:32:01 42° E 01:32:01 42° E
Lacrosse 5 rocket 4.1 01:39:14 12° ESE 01:39:14 12° ESE 01:39:36 10° ESE
ATLAS 5 CENTAUR R/B 3.3 01:37:32 30° N 01:37:32 30° N 01:41:09 10° NNE
IRS-1C 4.4 01:35:14 10° NNE 01:40:06 65° ENE 01:40:06 65° ENE
NOSS 3-3 (A) 4.3 01:40:27 10° NW 01:47:54 82° SW 01:56:09 10° SE
Cosmos 2180 Rocket 4.5 01:41:34 10° N 01:47:59 84° E 01:48:44 71° SSE
NOSS 3-3 (C) 4.3 01:40:34 10° NW 01:48:01 82° SW 01:56:15 10° SE
CZ-4B R/B 4.2 01:50:51 17° N 01:50:51 17° N 01:51:46 10° N
Cosmos 1125 Rocket 3.9 01:46:02 10° NNW 01:51:19 62° ENE 01:52:53 43° ESE
Cosmos 1814 Rocket 4.2 01:53:49 63° N 01:53:49 63° N 01:58:13 10° NNE
Cosmos 2279 Rocket 3.9 01:48:04 10° NNW 01:53:56 71° WNW 01:53:56 71° WNW
BREEZE-M DEB (TANK) 3.6 02:00:03 63° SSW 02:00:39 67° SSE 02:15:31 10° E
NOSS 3-2 (A) 3.3 02:00:54 72° S 02:01:25 78° SE 02:08:04 10° NE
Meteor 1-26 Rocket 4.4 02:03:15 55° SE 02:04:09 65° E 02:09:39 10° NNE
SL-16 R/B 4.0 02:07:04 22° NW 02:07:04 22° NW 02:09:50 10° NNW
NOSS 3-2 (C) 3.7 02:03:49 52° SSE 02:04:48 58° ESE 02:11:15 10° NE
COSMOS 2487 4.5 02:02:34 10° N 02:04:58 27° NE 02:04:58 27° NE
ATLAS 3B R/B 3.3 02:04:50 37° SSE 02:06:49 47° ESE 02:13:05 10° NE
CZ-2C R/B 3.9 02:05:14 10° NNE 02:08:52 41° E 02:08:52 41° E
Cosmos 2297 4.1 02:11:47 49° NW 02:11:47 49° NW 02:17:20 10° NNE
Cosmos 841 Rocket 3.8 02:16:29 52° NW 02:16:29 52° NW 02:21:17 10° NNE
IRS-P3 4.3 02:11:34 10° N 02:16:34 54° WNW 02:16:34 54° WNW
Cosmos 2084 4.2 02:19:12 45° NNW 02:19:12 45° NNW 02:23:03 10° NE
Cosmos 1606 4.0 02:21:29 34° N 02:21:29 34° N 02:23:52 10° N
BREEZE-M DEB (TANK) 4.1 02:20:27 54° W 02:21:45 71° SSW 02:37:43 10° ESE
ADEOS II 1.9 02:17:37 10° NNE 02:22:53 76° WNW 02:23:23 69° WSW
Cosmos 2369 Rocket 2.3 02:22:09 50° S 02:23:36 71° ESE 02:29:17 10° NNE
Cosmos 1833 4.5 02:22:19 10° NNW 02:27:57 68° ENE 02:33:33 10° SE
Unknown 4.5 02:28:34 40° SE 02:28:34 40° SE 02:32:14 10° ENE
Unknown 4.4 02:30:07 41° SE 02:30:07 41° SE 02:33:51 10° ENE
Spot 4 Rocket 3.9 02:24:55 10° NNE 02:30:05 78° WNW 02:30:52 63° SW
Nadezhda 4 Rocket 3.8 02:27:47 41° S 02:30:07 90° W 02:36:17 10° N
BREEZE-M DEB (TANK) 4.2 02:26:05 35° SW 02:30:56 62° S 02:35:32 10° E
Unknown 4.4 02:31:46 43° SE 02:31:46 43° SE 02:35:35 10° ENE
USA 267 4.1 02:25:30 10° E 02:31:42 47° NNE 02:37:45 11° WNW
Iridium 4 Rocket 4.3 02:28:39 14° SSE 02:32:08 41° E 02:36:08 10° NNE
Atlas Centaur 2 4.3 02:32:45 16° S 02:32:45 16° S 02:36:24 10° SE
Unknown 4.3 02:33:21 44° SE 02:33:21 44° SE 02:37:13 10° ENE
Cosmos 1869 Rocket 4.0 02:30:26 10° NNW 02:33:58 49° NW 02:33:58 49° NW
Unknown 4.2 02:34:58 45° SE 02:34:58 45° SE 02:38:56 10° ENE
Resurs 1-4 Rocket 3.4 02:31:19 10° N 02:35:11 24° NW 02:35:11 24° NW
FALCON 9 DEB 4.0 02:38:07 47° N 02:38:07 47° N 02:41:13 10° ENE
Unknown 4.1 02:38:09 47° SSE 02:38:16 47° SE 02:42:15 10° ENE
Meteor 1-20 Rocket 4.2 02:33:22 10° NNW 02:38:40 51° W 02:38:53 51° WSW
Unknown 4.0 02:39:25 45° N 02:39:25 45° N 02:42:28 10° ENE
IRS-1D 4.4 02:34:33 10° N 02:39:22 35° WNW 02:39:29 34° WNW
Starlink (trailer) 4.1 02:39:41 48° SSE 02:39:51 49° SE 02:43:52 10° ENE
IRIDIUM 104 4.4 02:40:02 52° W 02:40:24 54° W 02:45:32 10° N
Unknown 4.0 02:41:22 49° SSE 02:41:36 50° SE 02:45:37 10° ENE
Unknown 4.0 02:42:56 50° SSE 02:43:12 51° SE 02:47:14 10° ENE
ATLAS CENTAUR R/B 4.4 02:42:01 10° NNW 02:44:31 14° NNE 02:46:56 10° NE
SL-4 R/B 2.0 02:46:33 55° SE 02:46:33 55° SE 02:49:27 10° ESE
Unknown 3.3 02:47:55 82° SW 02:48:04 88° SSE 02:51:59 10° ENE
Unknown 3.2 02:48:09 82° WNW 02:48:15 84° NNW 02:52:06 10° ENE
CENTAUR R/B 2.6 02:45:29 35° SSW 02:48:16 77° SE 02:55:23 10° NE
Cosmos 2278 Rocket 4.2 02:47:02 13° NW 02:48:52 15° NNW 02:52:03 10° N
Unknown 3.8 02:49:18 52° S 02:49:49 56° SSE 02:53:54 10° ENE
Meteor 1-28 Rocket 3.4 02:50:56 55° NW 02:50:56 55° NW 02:54:08 10° NNW
Unknown 3.8 02:50:58 52° S 02:51:33 58° SSE 02:55:38 10° ENE
Unknown 3.8 02:51:31 52° S 02:52:07 59° SSE 02:56:12 10° ENE
Meteor 1-11 Rocket 4.4 02:46:50 10° N 02:52:24 55° ENE 02:57:49 10° SSE
Unknown 3.8 02:54:08 51° SSW 02:54:50 61° SSE 02:58:56 10° ENE
Unknown 3.7 02:55:50 52° SSW 02:56:36 64° SSE 03:00:43 10° ENE
Unknown 4.0 02:56:32 33° N 02:56:37 33° N 02:59:16 10° ENE
Cosmos 1602 4.0 02:53:17 10° NNW 02:56:39 48° WNW 02:56:39 48° WNW
Unknown 3.8 02:56:49 50° SSW 02:57:37 63° SSE 03:01:44 10° ENE
Unknown 3.7 02:59:02 50° SSW 02:59:55 67° SSE 03:04:03 10° ENE
Unknown 3.7 03:00:31 48° SSW 03:01:29 67° SSE 03:05:36 10° ENE
Unknown 3.7 03:01:08 48° SSW 03:02:06 68° SSE 03:06:14 10° ENE
Cosmos 540 Rocket 4.4 03:01:31 28° WNW 03:02:23 30° NW 03:06:56 10° N
Lacrosse 5 2.4 02:59:43 12° NW 03:04:26 59° NNE 03:09:25 10° ESE
Unknown 3.7 03:03:36 46° SW 03:04:41 68° SSE 03:08:49 10° ENE
BREEZE-M DEB (TANK) 3.5 03:03:08 31° SSW 03:04:53 47° SSE 03:07:37 10° E
Cosmos 1812 4.0 03:01:43 10° SSE 03:05:21 40° E 03:09:00 10° NNE
Timation 2 Rocket 3.8 03:00:28 10° NNW 03:06:34 87° ENE 03:12:33 10° SSE
Cosmos 1782 3.1 03:06:43 42° W 03:06:52 42° WNW 03:10:40 10° N
Unknown 3.6 03:06:54 44° SW 03:08:06 73° SSE 03:12:15 10° ENE
USA 238 DEB 4.2 03:04:50 28° W 03:08:11 47° NW 03:14:57 10° NE
USA 238 4.2 03:04:55 28° W 03:08:17 48° NW 03:15:04 10° NE
Cosmos 2344 3.7 03:04:07 29° WSW 03:08:21 65° NW 03:16:57 10° NE
ADEOS 3.7 03:03:13 10° NNE 03:08:28 76° ESE 03:13:37 10° S
CZ-2D R/B 4.1 03:05:24 10° N 03:09:04 34° WNW 03:09:14 34° WNW
Cosmos 2026 Rocket 4.1 03:02:58 10° S 03:09:15 84° E 03:15:39 10° N
Unknown 3.6 03:08:29 43° SW 03:09:45 74° SSE 03:13:54 10° ENE
Cosmos 1943 Rocket 2.4 03:08:01 33° WSW 03:10:11 51° NW 03:15:38 10° NNE
CZ-2D R/B 4.0 03:08:14 10° NNW 03:10:50 14° NW 03:11:29 14° WNW
Cosmos 1862 Rocket 3.9 03:06:41 11° S 03:11:02 69° E 03:15:31 10° NNE
ARIANE 5 R/B 3.4 03:06:47 10° N 03:11:14 31° WNW 03:12:21 28° W
Unknown 3.6 03:10:05 42° SW 03:11:24 76° SSE 03:15:34 10° ENE
SeaSat 1 3.0 03:07:53 10° NE 03:12:46 56° ESE 03:17:15 12° SSW
Unknown 3.6 03:11:42 40° SW 03:13:06 78° SSE 03:17:15 10° ENE
BREEZE-M DEB (TANK) 3.8 03:02:35 10° WNW 03:14:22 87° SSW 03:17:56 10° ESE
Lacrosse 5 rocket 2.3 03:15:00 30° SSW 03:15:00 30° SSW 03:18:16 10° SSE
H-2A R/B 2.8 03:12:11 10° NNE 03:15:59 58° ESE 03:19:46 10° S
Unknown 3.6 03:14:55 38° SW 03:16:26 81° SSE 03:20:35 10° ENE
Unknown 3.5 03:16:34 37° WSW 03:18:08 83° SSE 03:22:16 10° ENE
Unknown 3.8 03:17:24 34° WNW 03:18:43 53° NNW 03:22:24 10° ENE
Cosmos 1400 Rocket 2.6 03:17:05 30° SSW 03:18:51 67° WNW 03:22:43 10° N
Unknown 3.6 03:18:06 36° WSW 03:19:45 84° SSE 03:23:54 10° ENE
Cosmos 2084 Rocket 3.4 03:16:28 10° NW 03:20:55 90° NNE 03:25:16 10° SE
Unknown 3.6 03:19:39 34° WSW 03:21:21 85° SSE 03:25:31 10° ENE
Cosmos 44 3.3 03:18:58 24° SW 03:22:01 87° SE 03:26:50 10° NE
Unknown 4.1 03:20:42 26° WNW 03:22:12 41° N 03:25:34 10° ENE
ATLAS 5 CENTAUR R/B 4.1 03:19:39 10° NW 03:22:49 17° N 03:26:15 10° NNE
Unknown 3.5 03:21:32 33° WSW 03:23:20 88° SSE 03:27:30 10° ENE
ATLAS 5 CENTAUR R/B 2.8 03:23:24 21° NW 03:24:26 26° NNW 03:28:39 10° NE
Unknown 3.6 03:22:44 32° WSW 03:24:34 85° SSE 03:28:44 10° ENE
Unknown 3.6 03:25:53 30° WSW 03:27:51 88° SSE 03:32:01 10° ENE
Unknown 3.5 03:26:35 30° WSW 03:28:28 78° NNW 03:32:32 10° ENE
Unknown 3.5 03:27:30 29° WSW 03:29:32 90° SSE 03:33:42 10° ENE
Meteor 1-31 Rocket 4.4 03:26:55 10° NNE 03:30:35 36° E 03:34:11 10° SSE
Unknown 3.6 03:29:16 28° WSW 03:31:22 85° NNW 03:35:32 10° ENE
Falcon 9 debris 4.2 03:30:21 20° WNW 03:32:18 39° N 03:35:37 10° ENE
Unknown 3.6 03:30:41 27° WSW 03:32:52 87° NNW 03:37:02 10° ENE
S3M 4.2 03:27:00 10° N 03:33:12 76° E 03:39:26 10° SSE
Cosmos 2263 4.4 03:29:57 22° SW 03:33:28 52° NW 03:38:58 10° NNE
Unknown 3.6 03:32:17 26° WSW 03:34:30 86° NNW 03:38:41 10° ENE
Unknown 3.6 03:33:02 26° WSW 03:35:15 80° NNW 03:39:22 10° ENE
Cosmos 1666 3.9 03:32:21 10° N 03:36:00 45° ENE 03:39:38 10° SSE
Unknown 3.6 03:35:29 25° WSW 03:37:51 83° NNW 03:42:01 10° ENE
USA 215 4.0 03:32:06 10° ENE 03:38:25 48° SE 03:44:42 10° SSW
Meteor 1-5 Rocket 4.2 03:33:36 10° NNW 03:38:55 58° W 03:44:23 10° S
Cosmos 1908 Rocket 3.6 03:34:37 10° N 03:38:59 83° ENE 03:43:20 10° S
Unknown 3.6 03:37:05 24° WSW 03:39:31 82° NNW 03:43:41 10° ENE
Cosmos 1536 2.7 03:36:24 10° N 03:40:24 84° W 03:44:22 10° S
Unknown 3.6 03:38:41 23° WSW 03:41:11 80° NNW 03:45:21 10° ENE
Cosmos 1340 2.5 03:38:13 10° NNW 03:42:01 78° W 03:45:47 10° S
Unknown 3.6 03:40:14 22° WSW 03:42:48 79° NNW 03:46:58 10° ENE
CZ-2C R/B 4.3 03:40:14 10° NNW 03:43:13 20° WNW 03:44:16 18° W
Cosmos 1346 Rocket 2.8 03:40:10 10° NNW 03:44:15 70° W 03:48:19 10° S
Unknown 4.0 03:42:05 14° WNW 03:44:34 41° N 03:47:39 10° E
MSX 3.8 03:40:03 10° NNE 03:45:50 89° WNW 03:51:35 10° SSW
Unknown 3.6 03:43:28 21° WSW 03:46:11 76° NNW 03:50:20 10° ENE
PSLV R/B 3.8 03:43:34 10° N 03:47:49 49° WNW 03:52:01 10° SW
Unknown 3.7 03:45:22 20° WSW 03:48:08 70° NNW 03:52:17 10° ENE
Cosmos 1733 Rocket 3.7 03:44:47 10° NNW 03:48:48 33° W 03:52:47 10° SSW
Unknown 3.7 03:46:52 19° WSW 03:49:43 70° NNW 03:53:52 10° ENE
IDEFIX/ARIANE 42P 2.7 03:44:36 10° N 03:49:46 57° WNW 03:54:55 10° SSW
Unknown 3.7 03:47:07 19° WSW 03:49:59 72° NNW 03:54:09 10° ENE
Unknown 3.7 03:49:52 18° WSW 03:52:50 71° NNW 03:56:59 10° ENE
Unknown 4.2 03:51:27 13° WNW 03:54:24 39° N 03:57:46 10° ENE
CZ-4B R/B 3.5 03:50:19 10° NNE 03:54:51 70° ESE 03:59:21 10° S
NOSS 3-2 (C) 4.2 03:51:16 15° W 03:56:00 42° NNW 04:02:32 10° NE
Unknown 3.7 03:53:03 17° WSW 03:56:11 69° NNW 04:00:19 10° ENE
ATLAS 3B R/B 3.0 03:52:07 15° WSW 03:57:31 50° NW 04:03:56 10° NE
Unknown 3.7 03:54:39 16° WSW 03:57:50 68° NNW 04:01:59 10° ENE
Unknown 3.8 03:56:15 16° W 03:59:30 67° NNW 04:03:39 10° ENE
Cosmos 2227 Rocket 3.5 03:54:12 10° NNW 03:59:38 43° NE 04:05:02 10° SE
Cosmos 2219 3.7 03:54:45 10° NNW 04:00:28 67° ENE 04:06:06 10° SE
USA 81 4.4 03:55:50 10° SSW 04:00:53 45° WNW 04:05:58 10° N
Unknown 3.8 03:57:51 15° W 04:01:10 66° NNW 04:05:19 10° ENE
ADEOS II 3.9 03:59:03 10° NNW 04:01:45 14° NW 04:04:19 10° W
Cosmos 773 Rocket 3.9 03:56:58 10° SSW 04:02:08 73° WNW 04:07:19 10° NNE
Cosmos 1656 Rocket 4.1 04:02:15 10° SW 04:07:43 48° NW 04:13:11 10° NNE
Unknown 3.8 04:04:13 13° W 04:07:49 63° NNW 04:11:57 10° ENE
Cosmos 2369 Rocket 3.4 04:03:58 12° W 04:08:11 26° NW 04:12:55 10° NNE
Unknown 3.9 04:05:47 13° W 04:09:27 62° NNW 04:13:34 10° ENE
Cosmos 2297 Rocket 3.1 04:05:01 10° NNW 04:10:35 53° NE 04:16:06 10° SE
Unknown 3.9 04:07:25 12° W 04:11:10 61° NNW 04:15:17 10° ENE
Iridium 4 Rocket 4.4 04:08:51 10° SW 04:12:16 21° WNW 04:15:33 10° NNW
Unknown 3.9 04:09:00 12° W 04:12:48 60° NNW 04:16:56 10° ENE
Aureole 2 Rocket 2.2 04:11:14 10° SW 04:13:47 39° WNW 04:16:20 10° N
USA 267 3.4 04:07:48 10° ESE 04:14:21 83° NNE 04:20:56 10° NW
Unknown 3.9 04:10:38 11° W 04:14:31 59° NNW 04:18:37 10° ENE
FALCON 9 DEB 4.2 04:11:57 10° WNW 04:15:18 41° N 04:18:41 10° E
Cosmos 883 Rocket 4.5 04:09:19 10° N 04:15:30 88° W 04:21:37 10° S
Cosmos 2266 Rocket 4.0 04:10:03 10° S 04:16:09 89° E 04:22:13 10° N
Unknown 4.1 04:13:08 10° WNW 04:16:27 41° N 04:19:46 10° E
Cosmos 1500 4.3 04:13:27 10° NW 04:16:30 24° W 04:19:32 10° SW
Unknown 4.0 04:13:49 10° W 04:17:51 58° NNW 04:21:57 10° ENE
OPS 6432 4.3 04:15:43 10° SW 04:19:18 71° NW 04:22:19 10° NE
Starlink (trailer) 4.0 04:15:21 10° W 04:19:27 57° NNW 04:23:33 10° ENE
Unknown 4.0 04:17:07 10° W 04:21:12 56° NNW 04:25:18 10° ENE
CZ-4B R/B 3.7 04:17:55 10° N 04:21:36 62° WNW 04:25:11 10° SSW
Cosmos 1782 Rocket 3.5 04:17:21 10° NNW 04:21:41 63° W 04:26:01 10° S
Unknown 4.0 04:18:44 10° W 04:22:49 56° NNW 04:26:55 10° ENE
SKYMED 2 3.7 04:19:35 10° SSE 04:23:55 85° ENE 04:28:18 10° NNW
Meteor 1-27 Rocket 4.2 04:18:27 10° SW 04:24:02 44° WNW 04:29:34 10° N
ATLAS CENTAUR R/B 3.0 04:20:29 10° NNW 04:24:47 38° NE 04:28:46 10° ESE
SL-4 R/B 3.3 04:22:34 10° W 04:25:05 19° SW 04:27:41 10° S
Unknown 4.3 04:23:16 10° WNW 04:26:57 42° N 04:30:38 10° ENE
Unknown 4.2 04:23:13 10° W 04:26:58 44° N 04:30:44 10° ENE
Unknown 4.1 04:25:25 10° W 04:29:29 53° NNW 04:33:34 10° ENE
Unknown 4.1 04:27:09 10° W 04:31:14 53° NNW 04:35:18 10° ENE
